Hachijojima Airport


Codes: RJTH/HAC
Name: Hachijojima Airport
City: Hachijojima
Country: Japan
Elevation: 303 ft.
Wikipedia:

Photos at Hachijojima Airport


   Photos courtesy of SpottingLog. You can add your own sightings and photos by signing up for a free trial today.



No photos found.

Weather at Hachijojima Airport


Time (UTC)DescriptionTempratureWindCloud coverageVisibilityPressureHumidity
16-Jun-2024 03:00Moderate Rain23°C31 mph, SW99%10000m1006hPa95%
16-Jun-2024 06:00Light Rain23°C25 mph, SW96%10000m1005hPa95%
16-Jun-2024 09:00Light Rain23°C22 mph, SW97%10000m1007hPa95%
16-Jun-2024 12:00Overcast Clouds23°C22 mph, SW99%10000m1007hPa95%
16-Jun-2024 15:00Overcast Clouds23°C20 mph, SW88%10000m1007hPa95%
16-Jun-2024 18:00Overcast Clouds23°C20 mph, SW94%10000m1008hPa94%
16-Jun-2024 21:00Overcast Clouds23°C20 mph, SW100%10000m1009hPa94%
17-Jun-2024 00:00Overcast Clouds23°C16 mph, SW100%10000m1010hPa92%
17-Jun-2024 03:00Overcast Clouds23°C13 mph, W100%10000m1010hPa92%
17-Jun-2024 06:00Overcast Clouds23°C16 mph, SW100%10000m1010hPa93%
17-Jun-2024 09:00Overcast Clouds23°C16 mph, SW100%10000m1011hPa93%
17-Jun-2024 12:00Overcast Clouds23°C18 mph, SW100%10000m1012hPa88%
17-Jun-2024 15:00Overcast Clouds23°C16 mph, SW100%10000m1011hPa87%
17-Jun-2024 18:00Light Rain23°C13 mph, SW100%10000m1011hPa91%
17-Jun-2024 21:00Light Rain23°C22 mph, S93%10000m1010hPa91%
18-Jun-2024 00:00Light Rain24°C27 mph, S96%10000m1009hPa86%
18-Jun-2024 03:00Light Rain24°C29 mph, SW98%10000m1007hPa90%
18-Jun-2024 06:00Light Rain24°C29 mph, SW99%10000m1006hPa89%
18-Jun-2024 09:00Moderate Rain24°C36 mph, SW100%9632m1005hPa86%
18-Jun-2024 12:00Light Rain23°C34 mph, SW100%7571m1005hPa89%
18-Jun-2024 15:00Light Rain23°C36 mph, SW100%9170m1004hPa91%
18-Jun-2024 18:00Light Rain23°C27 mph, W100%10000m1004hPa89%
18-Jun-2024 21:00Light Rain23°C13 mph, W68%10000m1006hPa87%
19-Jun-2024 00:00Overcast Clouds22°C11 mph, N85%10000m1009hPa85%
19-Jun-2024 03:00Overcast Clouds22°C9 mph, N100%10000m1010hPa78%
19-Jun-2024 06:00Overcast Clouds23°C7 mph, N100%10000m1010hPa76%
19-Jun-2024 09:00Overcast Clouds23°C2 mph, NE95%10000m1011hPa74%
19-Jun-2024 12:00Overcast Clouds22°C4 mph, S97%10000m1011hPa78%
19-Jun-2024 15:00Overcast Clouds22°C4 mph, SW100%10000m1012hPa79%
19-Jun-2024 18:00Overcast Clouds22°C2 mph, N100%10000m1011hPa78%
19-Jun-2024 21:00Overcast Clouds22°C7 mph, SE100%10000m1011hPa80%
20-Jun-2024 00:00Overcast Clouds22°C9 mph, SE100%10000m1012hPa81%
20-Jun-2024 03:00Overcast Clouds22°C9 mph, SE100%10000m1012hPa81%
20-Jun-2024 06:00Overcast Clouds22°C7 mph, S100%10000m1012hPa83%
20-Jun-2024 09:00Light Rain22°C13 mph, SW100%10000m1012hPa86%
20-Jun-2024 12:00Broken Clouds22°C11 mph, W75%10000m1013hPa84%
20-Jun-2024 15:00Broken Clouds22°C9 mph, W62%10000m1012hPa85%
20-Jun-2024 18:00Broken Clouds23°C7 mph, NW81%10000m1011hPa82%
20-Jun-2024 21:00Light Rain22°C11 mph, N100%10000m1011hPa85%
21-Jun-2024 00:00Overcast Clouds22°C9 mph, E100%10000m1011hPa83%